Location: Innsbruck
(47.2657°N, 11.3914°E)
Time: 10:56:17
(UTC+01:00)

XW-2F - Pass Details

Date: 13 December 2021
Orbit: 495 x 515 km, 97.5° (Epoch: 15 January)

Event Time Altitude Azimuth Distance (km) Brightness Sun altitude
Rises 05:24:46 0° 31° (NNE) 2,644 ? -24.0°
Reaches altitude 10° 05:27:43 10° 56° (NE) 1,747 ? -23.5°
Maximum altitude 05:29:49 14° 90° (E) 1,485 ? -23.2°
Drops below altitude 10° 05:31:54 10° 124° (SE) 1,732 ? -22.8°
Sets 05:34:48 0° 150° (SSE) 2,606 ? -22.4°
